Time,TemperatureF,DewpointF,PressureIn,WindDirection,WindDirectionDegrees,WindSpeedMPH,WindSpeedGustMPH,Humidity,HourlyPrecipIn,Conditions,Clouds,dailyrainin,SoftwareType,DateUTC
2013-05-06 00:01:00,55.6,37.3,30.08,NE,55,3.0,5.0,50,0.00,,---,0.00,VWS V13.01,2013-05-06 04:01:00,
2013-05-06 00:06:00,55.4,37.6,30.08,ESE,117,1.0,5.0,51,0.00,,---,0.00,VWS V13.01,2013-05-06 04:06:00,
2013-05-06 00:11:00,55.2,37.4,30.08,East,101,0.0,5.0,51,0.00,,---,0.00,VWS V13.01,2013-05-06 04:11:00,
2013-05-06 00:16:00,55.0,37.7,30.08,NE,42,2.0,7.0,52,0.00,,---,0.00,VWS V13.01,2013-05-06 04:16:00,
2013-05-06 00:21:00,54.7,37.4,30.08,SE,128,5.0,10.0,52,0.00,,---,0.00,VWS V13.01,2013-05-06 04:21:00,
2013-05-06 00:26:00,54.7,37.9,30.08,ESE,112,2.0,10.0,53,0.00,,---,0.00,VWS V13.01,2013-05-06 04:26:00,
2013-05-06 00:31:00,54.5,37.7,30.08,SSE,168,0.0,1.0,53,0.00,,---,0.00,VWS V13.01,2013-05-06 04:31:00,
2013-05-06 00:36:00,54.3,38.0,30.09,SSE,168,1.0,1.0,54,0.00,,---,0.00,VWS V13.01,2013-05-06 04:36:00,
2013-05-06 00:41:00,54.1,37.8,30.09,WSW,254,0.0,4.0,54,0.00,,---,0.00,VWS V13.01,2013-05-06 04:41:00,
2013-05-06 00:46:00,54.0,38.2,30.09,SSE,147,4.0,7.0,55,0.00,,---,0.00,VWS V13.01,2013-05-06 04:46:00,
2013-05-06 00:51:00,54.0,38.2,30.09,SW,234,0.0,7.0,55,0.00,,---,0.00,VWS V13.01,2013-05-06 04:51:00,
2013-05-06 00:56:00,53.9,38.6,30.08,NE,37,2.0,7.0,56,0.00,,---,0.00,VWS V13.01,2013-05-06 04:56:00,
2013-05-06 01:01:00,53.6,38.3,30.08,NE,50,0.0,4.0,56,0.00,,---,0.00,VWS V13.01,2013-05-06 05:01:00,
2013-05-06 01:06:00,53.5,38.2,30.08,NE,48,0.0,4.0,56,0.00,,---,0.00,VWS V13.01,2013-05-06 05:06:00,
2013-05-06 01:11:00,53.3,38.5,30.08,SSE,157,5.0,7.0,57,0.00,,---,0.00,VWS V13.01,2013-05-06 05:11:00,
2013-05-06 01:16:00,53.3,38.0,30.08,NE,47,1.0,9.0,56,0.00,,---,0.00,VWS V13.01,2013-05-06 05:16:00,
2013-05-06 01:21:00,53.4,38.1,30.08,South,169,3.0,9.0,56,0.00,,---,0.00,VWS V13.01,2013-05-06 05:21:00,
2013-05-06 01:26:00,53.4,38.1,30.08,SE,132,3.0,9.0,56,0.00,,---,0.00,VWS V13.01,2013-05-06 05:26:00,
2013-05-06 01:31:00,53.3,38.0,30.08,East,98,3.0,3.0,56,0.00,,---,0.00,VWS V13.01,2013-05-06 05:31:00,
2013-05-06 01:36:00,53.3,38.0,30.08,ESE,107,7.0,10.0,56,0.00,,---,0.00,VWS V13.01,2013-05-06 05:36:00,
2013-05-06 01:41:00,53.3,38.0,30.08,East,90,2.0,11.0,56,0.00,,---,0.00,VWS V13.01,2013-05-06 05:41:00,
2013-05-06 01:46:00,53.1,37.8,30.08,East,98,2.0,11.0,56,0.00,,---,0.00,VWS V13.01,2013-05-06 05:46:00,
2013-05-06 01:51:00,52.8,38.0,30.08,SE,140,7.0,11.0,57,0.00,,---,0.00,VWS V13.01,2013-05-06 05:51:00,
2013-05-06 01:56:00,52.6,37.8,30.08,ENE,70,9.0,12.0,57,0.00,,---,0.00,VWS V13.01,2013-05-06 05:56:00,
2013-05-06 02:01:00,52.5,38.2,30.08,SSW,209,6.0,6.0,58,0.00,,---,0.00,VWS V13.01,2013-05-06 06:01:00,
2013-05-06 02:06:00,52.4,38.1,30.08,SE,142,6.0,12.0,58,0.00,,---,0.00,VWS V13.01,2013-05-06 06:06:00,
2013-05-06 02:11:00,52.3,38.4,30.07,ESE,121,3.0,13.0,59,0.00,,---,0.00,VWS V13.01,2013-05-06 06:11:00,
2013-05-06 02:16:00,52.2,38.3,30.07,SSE,157,7.0,13.0,59,0.00,,---,0.00,VWS V13.01,2013-05-06 06:16:00,
2013-05-06 02:21:00,52.1,38.2,30.07,East,80,6.0,18.0,59,0.00,,---,0.00,VWS V13.01,2013-05-06 06:21:00,
2013-05-06 02:26:00,52.1,38.7,30.07,East,99,2.0,18.0,60,0.00,,---,0.00,VWS V13.01,2013-05-06 06:26:00,
2013-05-06 02:31:00,51.9,38.9,30.07,ESE,117,4.0,7.0,61,0.00,,---,0.00,VWS V13.01,2013-05-06 06:31:00,
2013-05-06 02:36:00,51.8,38.8,30.08,ESE,109,8.0,10.0,61,0.00,,---,0.00,VWS V13.01,2013-05-06 06:36:00,
2013-05-06 02:41:00,51.7,38.7,30.07,South,178,2.0,10.0,61,0.00,,---,0.00,VWS V13.01,2013-05-06 06:41:00,
2013-05-06 02:46:00,51.5,38.9,30.07,SSE,154,3.0,10.0,62,0.00,,---,0.00,VWS V13.01,2013-05-06 06:46:00,
2013-05-06 02:51:00,51.3,38.7,30.07,ESE,115,0.0,10.0,62,0.00,,---,0.00,VWS V13.01,2013-05-06 06:51:00,
2013-05-06 02:56:00,51.2,39.0,30.07,ESE,104,2.0,11.0,63,0.00,,---,0.00,VWS V13.01,2013-05-06 06:56:00,
2013-05-06 03:01:00,51.0,39.3,30.07,SE,140,7.0,7.0,64,0.00,,---,0.00,VWS V13.01,2013-05-06 07:01:00,
2013-05-06 03:06:00,50.9,39.2,30.07,SSE,162,7.0,9.0,64,0.00,,---,0.00,VWS V13.01,2013-05-06 07:06:00,
2013-05-06 03:11:00,50.8,39.5,30.07,ESE,103,3.0,13.0,65,0.00,,---,0.00,VWS V13.01,2013-05-06 07:11:00,
2013-05-06 03:16:00,50.7,39.4,30.06,ESE,108,7.0,13.0,65,0.00,,---,0.00,VWS V13.01,2013-05-06 07:16:00,
2013-05-06 03:21:00,50.6,39.3,30.07,ESE,103,4.0,13.0,65,0.00,,---,0.00,VWS V13.01,2013-05-06 07:21:00,
2013-05-06 03:26:00,50.4,39.5,30.06,East,92,2.0,13.0,66,0.00,,---,0.00,VWS V13.01,2013-05-06 07:26:00,
2013-05-06 03:31:00,50.3,39.4,30.06,East,95,1.0,4.0,66,0.00,,---,0.00,VWS V13.01,2013-05-06 07:31:00,
2013-05-06 03:36:00,50.1,39.6,30.06,ESE,104,4.0,13.0,67,0.00,,---,0.00,VWS V13.01,2013-05-06 07:36:00,
2013-05-06 03:41:00,50.2,39.7,30.06,SE,134,4.0,13.0,67,0.00,,---,0.00,VWS V13.01,2013-05-06 07:41:00,
2013-05-06 03:46:00,50.2,39.7,30.06,ENE,78,7.0,13.0,67,0.00,,---,0.00,VWS V13.01,2013-05-06 07:46:00,
2013-05-06 03:51:00,50.2,39.7,30.06,ESE,122,4.0,13.0,67,0.00,,---,0.00,VWS V13.01,2013-05-06 07:51:00,
2013-05-06 03:56:00,50.1,39.6,30.06,ESE,105,7.0,13.0,67,0.00,,---,0.00,VWS V13.01,2013-05-06 07:56:00,
2013-05-06 04:01:00,50.1,39.6,30.06,SSE,156,0.0,6.0,67,0.00,,---,0.00,VWS V13.01,2013-05-06 08:01:00,
2013-05-06 04:06:00,49.9,39.8,30.06,SSE,155,2.0,7.0,68,0.00,,---,0.00,VWS V13.01,2013-05-06 08:06:00,
2013-05-06 04:11:00,49.6,39.9,30.06,South,169,5.0,9.0,69,0.00,,---,0.00,VWS V13.01,2013-05-06 08:11:00,
2013-05-06 04:16:00,49.5,39.8,30.06,ESE,123,0.0,13.0,69,0.00,,---,0.00,VWS V13.01,2013-05-06 08:16:00,
2013-05-06 04:21:00,49.4,40.0,30.06,ESE,119,0.0,13.0,70,0.00,,---,0.00,VWS V13.01,2013-05-06 08:21:00,
2013-05-06 04:26:00,49.3,39.9,30.07,ESE,108,3.0,13.0,70,0.00,,---,0.00,VWS V13.01,2013-05-06 08:26:00,
2013-05-06 04:31:00,49.1,39.8,30.06,ESE,102,3.0,6.0,70,0.00,,---,0.00,VWS V13.01,2013-05-06 08:31:00,
2013-05-06 04:36:00,49.0,40.0,30.07,ESE,113,1.0,7.0,71,0.00,,---,0.00,VWS V13.01,2013-05-06 08:36:00,
2013-05-06 04:41:00,48.8,39.8,30.07,SE,141,4.0,9.0,71,0.00,,---,0.00,VWS V13.01,2013-05-06 08:41:00,
2013-05-06 04:46:00,48.8,39.8,30.06,SE,126,1.0,9.0,71,0.00,,---,0.00,VWS V13.01,2013-05-06 08:46:00,
2013-05-06 04:51:00,48.7,40.1,30.07,East,94,7.0,10.0,72,0.00,,---,0.00,VWS V13.01,2013-05-06 08:51:00,
2013-05-06 04:56:00,48.8,39.8,30.07,SE,139,3.0,10.0,71,0.00,,---,0.00,VWS V13.01,2013-05-06 08:56:00,
2013-05-06 05:01:00,48.8,39.8,30.07,ESE,106,2.0,11.0,71,0.00,,---,0.00,VWS V13.01,2013-05-06 09:01:00,
2013-05-06 05:06:00,48.7,39.7,30.07,SE,132,1.0,11.0,71,0.00,,---,0.00,VWS V13.01,2013-05-06 09:06:00,
2013-05-06 05:11:00,48.6,39.6,30.07,East,98,2.0,11.0,71,0.00,,---,0.00,VWS V13.01,2013-05-06 09:11:00,
2013-05-06 05:16:00,48.7,39.7,30.06,East,98,9.0,13.0,71,0.00,,---,0.00,VWS V13.01,2013-05-06 09:16:00,
2013-05-06 05:21:00,48.8,39.8,30.06,SE,128,6.0,13.0,71,0.00,,---,0.00,VWS V13.01,2013-05-06 09:21:00,
2013-05-06 05:26:00,48.9,39.9,30.06,East,88,5.0,14.0,71,0.00,,---,0.00,VWS V13.01,2013-05-06 09:26:00,
2013-05-06 05:31:00,48.9,39.9,30.06,East,101,7.0,9.0,71,0.00,,---,0.00,VWS V13.01,2013-05-06 09:31:00,
2013-05-06 05:36:00,48.9,39.9,30.06,ESE,122,4.0,14.0,71,0.00,,---,0.00,VWS V13.01,2013-05-06 09:36:00,
2013-05-06 05:41:00,48.7,39.7,30.06,ESE,109,5.0,17.0,71,0.00,,---,0.00,VWS V13.01,2013-05-06 09:41:00,
2013-05-06 05:46:00,48.7,39.4,30.07,ESE,111,0.0,17.0,70,0.00,,---,0.00,VWS V13.01,2013-05-06 09:46:00,
2013-05-06 05:51:00,48.7,39.4,30.07,East,98,3.0,17.0,70,0.00,,---,0.00,VWS V13.01,2013-05-06 09:51:00,
2013-05-06 05:56:00,48.7,39.4,30.07,ESE,111,2.0,17.0,70,0.00,,---,0.00,VWS V13.01,2013-05-06 09:56:00,
2013-05-06 06:01:00,48.8,39.8,30.07,East,100,3.0,7.0,71,0.00,,---,0.00,VWS V13.01,2013-05-06 10:01:00,
2013-05-06 06:06:00,48.7,39.4,30.07,SE,129,2.0,10.0,70,0.00,,---,0.00,VWS V13.01,2013-05-06 10:06:00,
2013-05-06 06:11:00,48.5,39.5,30.07,ESE,116,2.0,10.0,71,0.00,,---,0.00,VWS V13.01,2013-05-06 10:11:00,
2013-05-06 06:16:00,48.6,39.3,30.07,East,79,2.0,13.0,70,0.00,,---,0.00,VWS V13.01,2013-05-06 10:16:00,
2013-05-06 06:21:00,48.6,39.3,30.07,SE,142,5.0,13.0,70,0.00,,---,0.00,VWS V13.01,2013-05-06 10:21:00,
2013-05-06 06:26:00,48.5,39.2,30.08,East,80,6.0,13.0,70,0.00,,---,0.00,VWS V13.01,2013-05-06 10:26:00,
2013-05-06 06:31:00,48.7,39.4,30.08,SE,130,1.0,2.0,70,0.00,,---,0.00,VWS V13.01,2013-05-06 10:31:00,
2013-05-06 06:36:00,48.7,39.4,30.07,ENE,78,3.0,8.0,70,0.00,,---,0.00,VWS V13.01,2013-05-06 10:36:00,
2013-05-06 06:41:00,48.8,39.1,30.08,SE,143,5.0,9.0,69,0.00,,---,0.00,VWS V13.01,2013-05-06 10:41:00,
2013-05-06 06:46:00,48.9,38.8,30.08,East,98,2.0,9.0,68,0.00,,---,0.00,VWS V13.01,2013-05-06 10:46:00,
2013-05-06 06:51:00,49.1,39.4,30.08,East,100,3.0,9.0,69,0.00,,---,0.00,VWS V13.01,2013-05-06 10:51:00,
2013-05-06 06:56:00,49.1,39.0,30.08,ESE,112,2.0,9.0,68,0.00,,---,0.00,VWS V13.01,2013-05-06 10:56:00,
2013-05-06 07:01:00,49.1,39.0,30.08,ESE,119,3.0,5.0,68,0.00,,---,0.00,VWS V13.01,2013-05-06 11:01:00,
2013-05-06 07:06:00,49.2,38.7,30.08,ESE,118,3.0,11.0,67,0.00,,---,0.00,VWS V13.01,2013-05-06 11:06:00,
2013-05-06 07:11:00,49.3,38.4,30.09,ENE,71,4.0,11.0,66,0.00,,---,0.00,VWS V13.01,2013-05-06 11:11:00,
2013-05-06 07:16:00,49.6,38.7,30.09,SE,128,2.0,14.0,66,0.00,,---,0.00,VWS V13.01,2013-05-06 11:16:00,
2013-05-06 07:21:00,50.1,38.8,30.09,ESE,104,1.0,14.0,65,0.00,,---,0.00,VWS V13.01,2013-05-06 11:21:00,
2013-05-06 07:26:00,50.6,38.9,30.09,ESE,119,2.0,14.0,64,0.00,,---,0.00,VWS V13.01,2013-05-06 11:26:00,
2013-05-06 07:31:00,50.9,38.8,30.09,East,84,1.0,3.0,63,0.00,,---,0.00,VWS V13.01,2013-05-06 11:31:00,
2013-05-06 07:36:00,51.4,38.8,30.09,East,83,5.0,7.0,62,0.00,,---,0.00,VWS V13.01,2013-05-06 11:36:00,
2013-05-06 07:41:00,51.7,38.7,30.09,East,79,8.0,9.0,61,0.00,,---,0.00,VWS V13.01,2013-05-06 11:41:00,
2013-05-06 07:46:00,51.6,39.0,30.09,East,83,3.0,10.0,62,0.00,,---,0.00,VWS V13.01,2013-05-06 11:46:00,
2013-05-06 07:51:00,51.7,39.1,30.09,ENE,76,3.0,11.0,62,0.00,,---,0.00,VWS V13.01,2013-05-06 11:51:00,
2013-05-06 07:56:00,51.9,38.9,30.09,East,96,5.0,11.0,61,0.00,,---,0.00,VWS V13.01,2013-05-06 11:56:00,
2013-05-06 08:01:00,52.4,39.8,30.09,East,92,6.0,6.0,62,0.00,,---,0.00,VWS V13.01,2013-05-06 12:01:00,
2013-05-06 08:06:00,53.1,39.2,30.09,ESE,122,4.0,10.0,59,0.00,,---,0.00,VWS V13.01,2013-05-06 12:06:00,
2013-05-06 08:11:00,53.5,40.4,30.09,East,90,5.0,10.0,61,0.00,,---,0.00,VWS V13.01,2013-05-06 12:11:00,
2013-05-06 08:16:00,54.1,40.1,30.09,East,86,9.0,10.0,59,0.00,,---,0.00,VWS V13.01,2013-05-06 12:16:00,
2013-05-06 08:21:00,54.5,40.0,30.09,ESE,123,7.0,10.0,58,0.00,,---,0.00,VWS V13.01,2013-05-06 12:21:00,
2013-05-06 08:26:00,54.7,40.2,30.09,NE,54,7.0,11.0,58,0.00,,---,0.00,VWS V13.01,2013-05-06 12:26:00,
2013-05-06 08:31:00,54.8,40.3,30.09,East,92,0.0,7.0,58,0.00,,---,0.00,VWS V13.01,2013-05-06 12:31:00,
2013-05-06 08:36:00,55.2,41.1,30.09,SE,140,5.0,10.0,59,0.00,,---,0.00,VWS V13.01,2013-05-06 12:36:00,
2013-05-06 08:41:00,55.7,41.2,30.09,ENE,76,8.0,10.0,58,0.00,,---,0.00,VWS V13.01,2013-05-06 12:41:00,
2013-05-06 08:46:00,55.4,41.3,30.09,SSE,156,1.0,10.0,59,0.00,,---,0.00,VWS V13.01,2013-05-06 12:46:00,
2013-05-06 08:51:00,54.9,41.7,30.09,East,84,7.0,10.0,61,0.00,,---,0.00,VWS V13.01,2013-05-06 12:51:00,
2013-05-06 08:56:00,54.6,42.3,30.09,SE,138,3.0,11.0,63,0.00,,---,0.00,VWS V13.01,2013-05-06 12:56:00,
2013-05-06 09:01:00,54.7,42.4,30.09,SE,136,2.0,6.0,63,0.00,,---,0.00,VWS V13.01,2013-05-06 13:01:00,
2013-05-06 09:06:00,55.1,43.6,30.09,ESE,122,4.0,8.0,65,0.00,,---,0.00,VWS V13.01,2013-05-06 13:06:00,
2013-05-06 09:11:00,56.0,44.0,30.09,ESE,123,3.0,8.0,64,0.00,,---,0.00,VWS V13.01,2013-05-06 13:11:00,
2013-05-06 09:16:00,56.9,44.0,30.09,ENE,76,3.0,8.0,62,0.00,,---,0.00,VWS V13.01,2013-05-06 13:16:00,
2013-05-06 09:21:00,57.5,44.6,30.09,ESE,123,2.0,8.0,62,0.00,,---,0.00,VWS V13.01,2013-05-06 13:21:00,
2013-05-06 09:26:00,58.3,44.9,30.09,SE,125,2.0,8.0,61,0.00,,---,0.00,VWS V13.01,2013-05-06 13:26:00,
2013-05-06 09:31:00,58.9,46.3,30.09,ENE,65,3.0,8.0,63,0.00,,---,0.00,VWS V13.01,2013-05-06 13:31:00,
2013-05-06 09:36:00,59.4,46.8,30.09,East,90,5.0,9.0,63,0.00,,---,0.00,VWS V13.01,2013-05-06 13:36:00,
2013-05-06 09:41:00,59.9,47.7,30.08,ENE,69,5.0,9.0,64,0.00,,---,0.00,VWS V13.01,2013-05-06 13:41:00,
2013-05-06 09:46:00,60.7,47.2,30.08,ESE,112,9.0,11.0,61,0.00,,---,0.00,VWS V13.01,2013-05-06 13:46:00,
2013-05-06 09:51:00,60.8,47.7,30.08,SE,133,1.0,13.0,62,0.00,,---,0.00,VWS V13.01,2013-05-06 13:51:00,
2013-05-06 09:56:00,60.9,48.7,30.08,SE,131,2.0,13.0,64,0.00,,---,0.00,VWS V13.01,2013-05-06 13:56:00,
2013-05-06 10:01:00,61.5,47.9,30.08,SSE,165,1.0,3.0,61,0.00,,---,0.00,VWS V13.01,2013-05-06 14:01:00,
2013-05-06 10:06:00,61.7,49.0,30.08,SE,142,2.0,10.0,63,0.00,,---,0.00,VWS V13.01,2013-05-06 14:06:00,
2013-05-06 10:11:00,62.1,48.5,30.08,East,97,7.0,10.0,61,0.00,,---,0.00,VWS V13.01,2013-05-06 14:11:00,
2013-05-06 10:16:00,62.3,49.1,30.08,SSE,165,2.0,10.0,62,0.00,,---,0.00,VWS V13.01,2013-05-06 14:16:00,
2013-05-06 10:21:00,62.6,49.0,30.09,East,92,1.0,10.0,61,0.00,,---,0.00,VWS V13.01,2013-05-06 14:21:00,
2013-05-06 10:25:00,62.3,48.7,30.09,ESE,103,3.0,10.0,61,0.00,,---,0.00,VWS V13.01,2013-05-06 14:25:00,
2013-05-06 10:30:00,62.1,48.9,30.08,SE,134,3.0,4.0,62,0.00,,---,0.00,VWS V13.01,2013-05-06 14:30:00,
2013-05-06 10:35:00,62.1,48.5,30.08,SE,130,1.0,7.0,61,0.00,,---,0.00,VWS V13.01,2013-05-06 14:35:00,
2013-05-06 10:40:00,62.0,48.8,30.09,SSE,153,6.0,7.0,62,0.00,,---,0.00,VWS V13.01,2013-05-06 14:40:00,
2013-05-06 10:45:00,62.0,49.3,30.09,SE,140,4.0,10.0,63,0.00,,---,0.00,VWS V13.01,2013-05-06 14:45:00,
2013-05-06 10:50:00,61.7,49.0,30.09,ESE,123,10.0,13.0,63,0.00,,---,0.00,VWS V13.01,2013-05-06 14:50:00,
2013-05-06 10:55:00,61.6,49.3,30.09,South,180,4.0,14.0,64,0.00,,---,0.00,VWS V13.01,2013-05-06 14:55:00,
2013-05-06 11:00:00,61.6,49.3,30.09,SSE,156,2.0,3.0,64,0.00,,---,0.00,VWS V13.01,2013-05-06 15:00:00,
2013-05-06 11:05:00,62.4,50.1,30.09,ESE,102,4.0,10.0,64,0.00,,---,0.00,VWS V13.01,2013-05-06 15:05:00,
2013-05-06 11:10:00,63.0,49.8,30.09,SE,125,5.0,14.0,62,0.00,,---,0.00,VWS V13.01,2013-05-06 15:10:00,
2013-05-06 11:15:00,63.2,49.5,30.09,East,91,2.0,15.0,61,0.00,,---,0.00,VWS V13.01,2013-05-06 15:15:00,
2013-05-06 11:20:00,63.2,50.0,30.09,SE,128,4.0,15.0,62,0.00,,---,0.00,VWS V13.01,2013-05-06 15:20:00,
2013-05-06 11:25:00,63.0,49.4,30.09,East,100,5.0,15.0,61,0.00,,---,0.00,VWS V13.01,2013-05-06 15:25:00,
2013-05-06 11:30:00,63.2,51.7,30.09,SE,128,4.0,9.0,66,0.00,,---,0.00,VWS V13.01,2013-05-06 15:30:00,
2013-05-06 11:35:00,64.3,51.5,30.09,ESE,102,4.0,13.0,63,0.00,,---,0.00,VWS V13.01,2013-05-06 15:35:00,
2013-05-06 11:40:00,65.0,51.7,30.08,South,182,3.0,15.0,62,0.00,,---,0.00,VWS V13.01,2013-05-06 15:40:00,
2013-05-06 11:45:00,65.4,50.7,30.08,East,88,6.0,15.0,59,0.00,,---,0.00,VWS V13.01,2013-05-06 15:45:00,
2013-05-06 11:50:00,65.4,51.6,30.08,ESE,115,9.0,15.0,61,0.00,,---,0.00,VWS V13.01,2013-05-06 15:50:00,
2013-05-06 11:55:00,65.8,51.1,30.08,East,82,2.0,15.0,59,0.00,,---,0.00,VWS V13.01,2013-05-06 15:55:00,
2013-05-06 12:00:00,65.9,50.7,30.08,SSE,150,4.0,9.0,58,0.00,,---,0.00,VWS V13.01,2013-05-06 16:00:00,
2013-05-06 12:05:00,66.2,51.9,30.08,East,96,7.0,14.0,60,0.00,,---,0.00,VWS V13.01,2013-05-06 16:05:00,
2013-05-06 12:10:00,66.7,51.9,30.08,ESE,109,1.0,14.0,59,0.00,,---,0.00,VWS V13.01,2013-05-06 16:10:00,
2013-05-06 12:15:00,67.1,51.4,30.08,SSE,154,7.0,14.0,57,0.00,,---,0.00,VWS V13.01,2013-05-06 16:15:00,
2013-05-06 12:20:00,67.1,50.9,30.07,SSW,209,6.0,17.0,56,0.00,,---,0.00,VWS V13.01,2013-05-06 16:20:00,
2013-05-06 12:25:00,67.1,51.8,30.07,SSE,167,3.0,17.0,58,0.00,,---,0.00,VWS V13.01,2013-05-06 16:25:00,
2013-05-06 12:30:00,67.5,53.1,30.07,SE,136,2.0,6.0,60,0.00,,---,0.00,VWS V13.01,2013-05-06 16:30:00,
2013-05-06 12:35:00,67.7,51.5,30.07,SSE,164,3.0,12.0,56,0.00,,---,0.00,VWS V13.01,2013-05-06 16:35:00,
2013-05-06 12:40:00,67.6,51.8,30.08,SE,144,6.0,14.0,57,0.00,,---,0.00,VWS V13.01,2013-05-06 16:40:00,
2013-05-06 12:45:00,67.6,52.3,30.07,East,86,5.0,15.0,58,0.00,,---,0.00,VWS V13.01,2013-05-06 16:45:00,
2013-05-06 12:50:00,67.6,51.8,30.06,East,92,8.0,15.0,57,0.00,,---,0.00,VWS V13.01,2013-05-06 16:50:00,
2013-05-06 12:55:00,67.7,51.9,30.06,ESE,107,7.0,15.0,57,0.00,,---,0.00,VWS V13.01,2013-05-06 16:55:00,
2013-05-06 13:00:00,67.4,51.7,30.06,East,96,5.0,8.0,57,0.00,,---,0.00,VWS V13.01,2013-05-06 17:00:00,
2013-05-06 13:05:00,67.3,51.6,30.06,ENE,78,9.0,14.0,57,0.00,,---,0.00,VWS V13.01,2013-05-06 17:05:00,
2013-05-06 13:10:00,67.3,52.5,30.06,SE,139,6.0,14.0,59,0.00,,---,0.00,VWS V13.01,2013-05-06 17:10:00,
2013-05-06 13:15:00,67.5,51.3,30.06,SE,141,2.0,14.0,56,0.00,,---,0.00,VWS V13.01,2013-05-06 17:15:00,
2013-05-06 13:20:00,67.6,51.8,30.06,SE,145,2.0,14.0,57,0.00,,---,0.00,VWS V13.01,2013-05-06 17:20:00,
2013-05-06 13:25:00,68.4,52.1,30.06,SSW,199,7.0,14.0,56,0.00,,---,0.00,VWS V13.01,2013-05-06 17:25:00,
2013-05-06 13:30:00,68.8,52.5,30.06,SSE,150,6.0,8.0,56,0.00,,---,0.00,VWS V13.01,2013-05-06 17:30:00,
2013-05-06 13:35:00,68.4,52.1,30.06,ENE,78,4.0,10.0,56,0.00,,---,0.00,VWS V13.01,2013-05-06 17:35:00,
2013-05-06 13:40:00,68.5,53.2,30.06,ENE,63,10.0,10.0,58,0.00,,---,0.00,VWS V13.01,2013-05-06 17:40:00,
2013-05-06 13:45:00,68.4,51.6,30.06,SE,128,7.0,15.0,55,0.00,,---,0.00,VWS V13.01,2013-05-06 17:45:00,
2013-05-06 13:50:00,67.9,51.6,30.06,SSW,197,5.0,15.0,56,0.00,,---,0.00,VWS V13.01,2013-05-06 17:50:00,
2013-05-06 13:55:00,67.9,51.6,30.06,East,92,5.0,15.0,56,0.00,,---,0.00,VWS V13.01,2013-05-06 17:55:00,
2013-05-06 14:00:00,67.7,51.5,30.06,East,96,8.0,8.0,56,0.00,,---,0.00,VWS V13.01,2013-05-06 18:00:00,
2013-05-06 14:05:00,67.6,51.4,30.06,East,85,3.0,14.0,56,0.00,,---,0.00,VWS V13.01,2013-05-06 18:05:00,
2013-05-06 14:10:00,67.6,52.3,30.05,ESE,121,0.0,14.0,58,0.00,,---,0.00,VWS V13.01,2013-05-06 18:10:00,
2013-05-06 14:15:00,67.9,51.6,30.05,ENE,76,3.0,14.0,56,0.00,,---,0.00,VWS V13.01,2013-05-06 18:15:00,
2013-05-06 14:20:00,67.7,51.5,30.05,ESE,121,3.0,14.0,56,0.00,,---,0.00,VWS V13.01,2013-05-06 18:20:00,
2013-05-06 14:25:00,67.5,51.8,30.05,East,81,5.0,14.0,57,0.00,,---,0.00,VWS V13.01,2013-05-06 18:25:00,
2013-05-06 14:30:00,67.4,52.1,30.05,ENE,61,3.0,5.0,58,0.00,,---,0.00,VWS V13.01,2013-05-06 18:30:00,
2013-05-06 14:35:00,67.0,51.8,30.05,ENE,78,3.0,10.0,58,0.00,,---,0.00,VWS V13.01,2013-05-06 18:35:00,
2013-05-06 14:40:00,66.7,52.4,30.05,ENE,64,1.0,11.0,60,0.00,,---,0.00,VWS V13.01,2013-05-06 18:40:00,
2013-05-06 14:45:00,66.9,52.6,30.04,ESE,103,4.0,11.0,60,0.00,,---,0.00,VWS V13.01,2013-05-06 18:45:00,
2013-05-06 14:50:00,66.7,52.4,30.04,ENE,61,5.0,11.0,60,0.00,,---,0.00,VWS V13.01,2013-05-06 18:50:00,
2013-05-06 14:55:00,66.8,52.5,30.04,ENE,73,0.0,11.0,60,0.00,,---,0.00,VWS V13.01,2013-05-06 18:55:00,
2013-05-06 15:00:00,66.9,52.6,30.04,ESE,105,4.0,4.0,60,0.00,,---,0.00,VWS V13.01,2013-05-06 19:00:00,
2013-05-06 15:05:00,66.6,51.8,30.04,East,81,5.0,13.0,59,0.00,,---,0.00,VWS V13.01,2013-05-06 19:05:00,
2013-05-06 15:10:00,66.3,52.0,30.04,SSE,161,5.0,13.0,60,0.00,,---,0.00,VWS V13.01,2013-05-06 19:10:00,
2013-05-06 15:15:00,66.2,51.9,30.04,South,171,5.0,13.0,60,0.00,,---,0.00,VWS V13.01,2013-05-06 19:15:00,
2013-05-06 15:20:00,66.0,52.6,30.04,East,99,7.0,13.0,62,0.00,,---,0.00,VWS V13.01,2013-05-06 19:20:00,
2013-05-06 15:25:00,65.8,52.4,30.03,East,95,5.0,13.0,62,0.00,,---,0.00,VWS V13.01,2013-05-06 19:25:00,
2013-05-06 15:30:00,66.4,53.4,30.03,SE,130,7.0,15.0,63,0.00,,---,0.00,VWS V13.01,2013-05-06 19:30:00,
2013-05-06 15:35:00,67.0,52.7,30.03,East,101,8.0,15.0,60,0.00,,---,0.00,VWS V13.01,2013-05-06 19:35:00,
2013-05-06 15:40:00,66.8,52.5,30.03,ESE,114,3.0,15.0,60,0.00,,---,0.00,VWS V13.01,2013-05-06 19:40:00,
2013-05-06 15:45:00,67.3,53.8,30.03,SE,129,3.0,15.0,62,0.00,,---,0.00,VWS V13.01,2013-05-06 19:45:00,
2013-05-06 15:50:00,67.6,53.2,30.02,South,169,3.0,15.0,60,0.00,,---,0.00,VWS V13.01,2013-05-06 19:50:00,
2013-05-06 15:55:00,68.3,54.3,30.02,SE,142,5.0,15.0,61,0.00,,---,0.00,VWS V13.01,2013-05-06 19:55:00,
2013-05-06 16:00:00,68.6,53.7,30.02,ENE,76,3.0,6.0,59,0.00,,---,0.00,VWS V13.01,2013-05-06 20:00:00,
2013-05-06 16:05:00,68.4,53.1,30.02,ESE,118,5.0,11.0,58,0.00,,---,0.00,VWS V13.01,2013-05-06 20:05:00,
2013-05-06 16:10:00,68.1,53.7,30.02,SSE,149,3.0,11.0,60,0.00,,---,0.00,VWS V13.01,2013-05-06 20:10:00,
2013-05-06 16:15:00,67.5,52.7,30.02,SE,140,1.0,12.0,59,0.00,,---,0.00,VWS V13.01,2013-05-06 20:15:00,
2013-05-06 16:20:00,67.3,53.0,30.02,South,172,3.0,12.0,60,0.00,,---,0.00,VWS V13.01,2013-05-06 20:20:00,
2013-05-06 16:25:00,67.2,52.9,30.01,SE,140,3.0,13.0,60,0.00,,---,0.00,VWS V13.01,2013-05-06 20:25:00,
2013-05-06 16:30:00,67.5,53.6,30.01,ESE,112,10.0,10.0,61,0.00,,---,0.00,VWS V13.01,2013-05-06 20:30:00,
2013-05-06 16:35:00,67.5,53.1,30.01,SE,132,7.0,13.0,60,0.00,,---,0.00,VWS V13.01,2013-05-06 20:35:00,
2013-05-06 16:40:00,66.9,53.0,30.02,SE,139,6.0,14.0,61,0.00,,---,0.00,VWS V13.01,2013-05-06 20:40:00,
2013-05-06 16:45:00,66.9,53.9,30.01,East,90,9.0,14.0,63,0.00,,---,0.00,VWS V13.01,2013-05-06 20:45:00,
2013-05-06 16:50:00,67.0,53.1,30.02,ESE,120,4.0,14.0,61,0.00,,---,0.00,VWS V13.01,2013-05-06 20:50:00,
2013-05-06 16:55:00,66.9,53.5,30.02,ESE,105,3.0,14.0,62,0.00,,---,0.00,VWS V13.01,2013-05-06 20:55:00,
2013-05-06 17:00:00,67.0,54.0,30.02,SE,131,6.0,6.0,63,0.00,,---,0.00,VWS V13.01,2013-05-06 21:00:00,
2013-05-06 17:05:00,66.9,53.5,30.02,East,94,3.0,14.0,62,0.00,,---,0.00,VWS V13.01,2013-05-06 21:05:00,
2013-05-06 17:10:00,66.3,53.3,30.02,ESE,104,4.0,14.0,63,0.00,,---,0.00,VWS V13.01,2013-05-06 21:10:00,
2013-05-06 17:15:00,65.9,53.0,30.03,SSE,149,4.0,14.0,63,0.00,,---,0.00,VWS V13.01,2013-05-06 21:15:00,
2013-05-06 17:20:00,65.5,53.4,30.03,ENE,78,3.0,14.0,65,0.00,,---,0.00,VWS V13.01,2013-05-06 21:20:00,
2013-05-06 17:25:00,65.2,53.2,30.03,ESE,117,8.0,14.0,65,0.00,,---,0.00,VWS V13.01,2013-05-06 21:25:00,
2013-05-06 17:30:00,64.9,53.3,30.03,East,84,6.0,11.0,66,0.00,,---,0.00,VWS V13.01,2013-05-06 21:30:00,
2013-05-06 17:35:00,64.6,53.0,30.03,East,94,3.0,11.0,66,0.00,,---,0.00,VWS V13.01,2013-05-06 21:35:00,
2013-05-06 17:40:00,64.5,53.3,30.03,SSE,149,3.0,11.0,67,0.00,,---,0.00,VWS V13.01,2013-05-06 21:40:00,
2013-05-06 17:45:00,64.4,52.8,30.03,SE,132,3.0,11.0,66,0.00,,---,0.00,VWS V13.01,2013-05-06 21:45:00,
2013-05-06 17:50:00,64.3,53.1,30.02,ENE,59,2.0,11.0,67,0.00,,---,0.00,VWS V13.01,2013-05-06 21:50:00,
2013-05-06 17:55:00,64.3,53.1,30.02,SE,124,0.0,11.0,67,0.00,,---,0.00,VWS V13.01,2013-05-06 21:55:00,
2013-05-06 18:00:00,64.2,53.0,30.02,SE,139,2.0,4.0,67,0.00,,---,0.00,VWS V13.01,2013-05-06 22:00:00,
2013-05-06 18:05:00,64.2,53.0,30.02,SSE,166,2.0,5.0,67,0.00,,---,0.00,VWS V13.01,2013-05-06 22:05:00,
2013-05-06 18:10:00,64.2,53.0,30.02,East,79,1.0,7.0,67,0.00,,---,0.00,VWS V13.01,2013-05-06 22:10:00,
2013-05-06 18:15:00,64.3,53.1,30.02,East,99,0.0,9.0,67,0.00,,---,0.00,VWS V13.01,2013-05-06 22:15:00,
2013-05-06 18:20:00,64.4,53.2,30.02,SE,132,3.0,9.0,67,0.00,,---,0.00,VWS V13.01,2013-05-06 22:20:00,
2013-05-06 18:25:00,64.5,53.3,30.02,East,84,6.0,9.0,67,0.00,,---,0.00,VWS V13.01,2013-05-06 22:25:00,
2013-05-06 18:30:00,64.4,52.8,30.02,East,84,5.0,6.0,66,0.00,,---,0.00,VWS V13.01,2013-05-06 22:30:00,
2013-05-06 18:35:00,64.1,52.9,30.02,SE,126,1.0,10.0,67,0.00,,---,0.00,VWS V13.01,2013-05-06 22:35:00,
2013-05-06 18:40:00,64.0,52.8,30.02,ENE,69,3.0,10.0,67,0.00,,---,0.00,VWS V13.01,2013-05-06 22:40:00,
2013-05-06 18:45:00,63.9,53.1,30.02,East,81,6.0,10.0,68,0.00,,---,0.00,VWS V13.01,2013-05-06 22:45:00,
2013-05-06 18:50:00,63.8,52.7,30.02,ENE,57,5.0,10.0,67,0.00,,---,0.00,VWS V13.01,2013-05-06 22:50:00,
2013-05-06 18:55:00,63.7,52.5,30.02,ESE,102,2.0,10.0,67,0.00,,---,0.00,VWS V13.01,2013-05-06 22:55:00,
2013-05-06 19:00:00,63.5,52.8,30.02,East,82,2.0,3.0,68,0.00,,---,0.00,VWS V13.01,2013-05-06 23:00:00,
2013-05-06 19:05:00,63.4,53.1,30.02,SSE,153,4.0,8.0,69,0.00,,---,0.00,VWS V13.01,2013-05-06 23:05:00,
2013-05-06 19:10:00,63.1,52.8,30.02,East,82,5.0,8.0,69,0.00,,---,0.00,VWS V13.01,2013-05-06 23:10:00,
2013-05-06 19:15:00,62.8,52.9,30.02,East,99,3.0,9.0,70,0.00,,---,0.00,VWS V13.01,2013-05-06 23:15:00,
2013-05-06 19:20:00,62.6,53.1,30.02,ESE,119,1.0,9.0,71,0.00,,---,0.00,VWS V13.01,2013-05-06 23:20:00,
2013-05-06 19:25:00,62.4,52.9,30.02,ENE,67,2.0,9.0,71,0.00,,---,0.00,VWS V13.01,2013-05-06 23:25:00,
2013-05-06 19:30:00,62.3,52.8,30.03,East,80,9.0,9.0,71,0.00,,---,0.00,VWS V13.01,2013-05-06 23:30:00,
2013-05-06 19:35:00,62.3,52.8,30.03,ENE,78,7.0,9.0,71,0.00,,---,0.00,VWS V13.01,2013-05-06 23:35:00,
2013-05-06 19:40:00,62.3,52.8,30.03,East,86,2.0,9.0,71,0.00,,---,0.00,VWS V13.01,2013-05-06 23:40:00,
2013-05-06 19:45:00,62.2,52.7,30.03,ESE,115,0.0,9.0,71,0.00,,---,0.00,VWS V13.01,2013-05-06 23:45:00,
2013-05-06 19:51:00,62.2,52.7,30.03,ENE,66,7.0,9.0,71,0.00,,---,0.00,VWS V13.01,2013-05-06 23:51:00,
2013-05-06 19:56:00,62.2,52.7,30.03,NE,55,5.0,10.0,71,0.00,,---,0.00,VWS V13.01,2013-05-06 23:56:00,
2013-05-06 20:01:00,62.1,53.0,30.03,East,97,2.0,6.0,72,0.00,,---,0.00,VWS V13.01,2013-05-07 00:01:00,
2013-05-06 20:06:00,62.1,53.0,30.03,East,80,2.0,6.0,72,0.00,,---,0.00,VWS V13.01,2013-05-07 00:06:00,
2013-05-06 20:11:00,62.0,52.9,30.03,ENE,78,1.0,7.0,72,0.00,,---,0.00,VWS V13.01,2013-05-07 00:11:00,
2013-05-06 20:16:00,62.0,52.9,30.03,ENE,65,3.0,7.0,72,0.00,,---,0.00,VWS V13.01,2013-05-07 00:16:00,
2013-05-06 20:21:00,61.9,52.8,30.03,East,85,2.0,7.0,72,0.00,,---,0.00,VWS V13.01,2013-05-07 00:21:00,
2013-05-06 20:26:00,61.8,53.1,30.04,SE,140,3.0,7.0,73,0.00,,---,0.00,VWS V13.01,2013-05-07 00:26:00,
2013-05-06 20:31:00,61.8,53.1,30.04,East,84,2.0,5.0,73,0.00,,---,0.00,VWS V13.01,2013-05-07 00:31:00,
2013-05-06 20:36:00,61.7,53.0,30.04,East,88,3.0,6.0,73,0.00,,---,0.00,VWS V13.01,2013-05-07 00:36:00,
2013-05-06 20:41:00,61.6,53.2,30.04,NE,35,2.0,9.0,74,0.00,,---,0.00,VWS V13.01,2013-05-07 00:41:00,
2013-05-06 20:46:00,61.4,53.0,30.04,NNE,30,9.0,9.0,74,0.00,,---,0.00,VWS V13.01,2013-05-07 00:46:00,
2013-05-06 20:51:00,61.2,53.2,30.04,ENE,68,3.0,9.0,75,0.00,,---,0.00,VWS V13.01,2013-05-07 00:51:00,
2013-05-06 20:56:00,60.9,53.3,30.03,NE,44,4.0,9.0,76,0.00,,---,0.00,VWS V13.01,2013-05-07 00:56:00,
2013-05-06 21:01:00,60.8,53.2,30.04,NE,43,8.0,8.0,76,0.00,,---,0.00,VWS V13.01,2013-05-07 01:01:00,
2013-05-06 21:06:00,60.7,53.5,30.04,East,81,2.0,9.0,77,0.00,,---,0.00,VWS V13.01,2013-05-07 01:06:00,
2013-05-06 21:11:00,60.7,53.5,30.04,East,92,3.0,11.0,77,0.00,,---,0.00,VWS V13.01,2013-05-07 01:11:00,
2013-05-06 21:16:00,60.6,53.4,30.04,ENE,71,2.0,11.0,77,0.00,,---,0.00,VWS V13.01,2013-05-07 01:16:00,
2013-05-06 21:21:00,60.6,53.4,30.04,ENE,60,8.0,11.0,77,0.00,,---,0.00,VWS V13.01,2013-05-07 01:21:00,
2013-05-06 21:26:00,60.6,53.4,30.04,ENE,66,1.0,11.0,77,0.00,,---,0.00,VWS V13.01,2013-05-07 01:26:00,
2013-05-06 21:31:00,60.6,53.4,30.04,NE,47,2.0,4.0,77,0.00,,---,0.00,VWS V13.01,2013-05-07 01:31:00,
2013-05-06 21:36:00,60.6,53.4,30.04,ENE,67,2.0,5.0,77,0.00,,---,0.00,VWS V13.01,2013-05-07 01:36:00,
2013-05-06 21:41:00,60.6,53.4,30.04,ENE,66,3.0,6.0,77,0.00,,---,0.00,VWS V13.01,2013-05-07 01:41:00,
2013-05-06 21:46:00,60.6,53.0,30.04,East,83,6.0,9.0,76,0.00,,---,0.00,VWS V13.01,2013-05-07 01:46:00,
2013-05-06 21:51:00,60.6,53.0,30.04,ENE,71,3.0,9.0,76,0.00,,---,0.00,VWS V13.01,2013-05-07 01:51:00,
2013-05-06 21:56:00,60.7,53.1,30.04,East,88,3.0,9.0,76,0.00,,---,0.00,VWS V13.01,2013-05-07 01:56:00,
2013-05-06 22:01:00,60.7,53.1,30.05,ENE,69,2.0,5.0,76,0.00,,---,0.00,VWS V13.01,2013-05-07 02:01:00,
2013-05-06 22:06:00,60.7,53.1,30.04,NE,40,5.0,7.0,76,0.00,,---,0.00,VWS V13.01,2013-05-07 02:06:00,
2013-05-06 22:11:00,60.7,53.1,30.04,ENE,61,5.0,7.0,76,0.00,,---,0.00,VWS V13.01,2013-05-07 02:11:00,
2013-05-06 22:16:00,60.7,53.1,30.04,ENE,74,2.0,9.0,76,0.00,,---,0.00,VWS V13.01,2013-05-07 02:16:00,
2013-05-06 22:21:00,60.8,53.2,30.04,ENE,57,4.0,9.0,76,0.00,,---,0.00,VWS V13.01,2013-05-07 02:21:00,
2013-05-06 22:26:00,60.8,52.8,30.05,ENE,63,1.0,9.0,75,0.00,,---,0.00,VWS V13.01,2013-05-07 02:26:00,
2013-05-06 22:31:00,60.8,52.8,30.05,ENE,78,1.0,7.0,75,0.00,,---,0.00,VWS V13.01,2013-05-07 02:31:00,
2013-05-06 22:36:00,60.8,52.8,30.05,ENE,71,3.0,7.0,75,0.00,,---,0.00,VWS V13.01,2013-05-07 02:36:00,
2013-05-06 22:41:00,60.8,52.8,30.04,ENE,76,2.0,7.0,75,0.00,,---,0.00,VWS V13.01,2013-05-07 02:41:00,
2013-05-06 22:46:00,60.8,52.8,30.05,ENE,76,5.0,7.0,75,0.00,,---,0.00,VWS V13.01,2013-05-07 02:46:00,
2013-05-06 22:51:00,60.8,52.8,30.05,East,85,1.0,7.0,75,0.00,,---,0.00,VWS V13.01,2013-05-07 02:51:00,
2013-05-06 22:56:00,60.8,52.8,30.05,ENE,76,9.0,13.0,75,0.00,,---,0.00,VWS V13.01,2013-05-07 02:56:00,
2013-05-06 23:01:00,60.7,53.5,30.04,East,80,2.0,8.0,77,0.00,,---,0.00,VWS V13.01,2013-05-07 03:01:00,
2013-05-06 23:06:00,60.5,53.3,30.04,ESE,103,2.0,8.0,77,0.00,,---,0.00,VWS V13.01,2013-05-07 03:06:00,
2013-05-06 23:11:00,60.3,53.1,30.04,ENE,76,1.0,8.0,77,0.00,,---,0.00,VWS V13.01,2013-05-07 03:11:00,
2013-05-06 23:16:00,60.2,53.3,30.04,East,92,2.0,8.0,78,0.00,,---,0.00,VWS V13.01,2013-05-07 03:16:00,
2013-05-06 23:21:00,60.1,53.2,30.04,East,82,5.0,8.0,78,0.00,,---,0.00,VWS V13.01,2013-05-07 03:21:00,
2013-05-06 23:26:00,60.0,53.1,30.04,ENE,70,4.0,8.0,78,0.00,,---,0.00,VWS V13.01,2013-05-07 03:26:00,
2013-05-06 23:31:00,60.0,53.1,30.04,ENE,65,3.0,6.0,78,0.00,,---,0.00,VWS V13.01,2013-05-07 03:31:00,
2013-05-06 23:36:00,59.9,53.4,30.03,East,88,2.0,8.0,79,0.00,,---,0.00,VWS V13.01,2013-05-07 03:36:00,
2013-05-06 23:41:00,59.8,53.3,30.03,East,79,2.0,8.0,79,0.00,,---,0.00,VWS V13.01,2013-05-07 03:41:00,
2013-05-06 23:46:00,59.6,53.1,30.03,NE,45,1.0,8.0,79,0.00,,---,0.00,VWS V13.01,2013-05-07 03:46:00,
2013-05-06 23:51:00,59.5,53.0,30.03,NE,44,1.0,8.0,79,0.00,,---,0.00,VWS V13.01,2013-05-07 03:51:00,
2013-05-06 23:56:00,59.4,53.2,30.02,NE,44,7.0,9.0,80,0.00,,---,0.00,VWS V13.01,2013-05-07 03:56:00,